Regional Weather Roundup
Issued by NWS

Home | Current Version | Previous Version | Text Only | Print | Product List | Glossary On
Versions: 1 2 3 4 5 6 7 8 9 10 11 12 13 14 15 16 17 18 19 20 21 22 23 24 25 26 27 28 29 30 31 32 33 34 35 36 37 38 39 40 41 42 43 44 45 46 47 48 49 50
000
ASUS43 KLMK 300002
RWRKY
KENTUCKY REGIONAL WEATHER ROUNDUP
NATIONAL WEATHER SERVICE LOUISVILLE KY
800 PM EDT MON MAY 29 2017

NOTE "FAIR" INDICATES FEW OR NO CLOUDS BELOW 12,000 FEET
WITH NO SIGNIFICANT WEATHER AND/OR OBSTRUCTIONS TO VISIBILITY.

KYZ001>023-026-027-061>063-070>075-300100-
WESTERN AND SOUTH CENTRAL KENTUCKY

CITY           SKY/WX    TMP DP  RH WIND       PRES   REMARKS
PADUCAH        CLOUDY    82  56  40 SW5       29.92S
HENDERSON      CLOUDY    80  59  48 SW10      29.92R
OWENSBORO      CLOUDY    80  57  45 SW10      29.93R
HOPKINSVILLE   CLOUDY    79  60  53 S8        29.96R
BOWLING GREEN  CLOUDY    78  62  57 S8        29.96R
GLASGOW        NOT AVBL
$$

KYZ024-025-028>034-038-045-046-053-300100-
NORTH CENTRAL KENTUCKY

CITY           SKY/WX    TMP DP  RH WIND       PRES   REMARKS
LOUISVILLE/SDF CLOUDY    80  56  43 S8        29.92S
LOUISVILLE/LOU PTCLDY    80  55  42 SW9       29.93S
FORT KNOX      CLOUDY    75  59  56 S7        29.93S
$$

KYZ035>037-039>044-047>052-055>060-089>105-300100-
NORTHEAST KENTUCKY

CITY           SKY/WX    TMP DP  RH WIND       PRES   REMARKS
LEXINGTON      CLOUDY    76  58  53 SW9       29.97R
COVINGTON      MOCLDY    77  52  41 SW6       29.92S
FRANKFORT      CLOUDY    76  57  51 SW7       29.94R
$$

KYZ054-064>069-076>088-106>120-300100-
SOUTHEAST KENTUCKY

CITY           SKY/WX    TMP DP  RH WIND       PRES   REMARKS
JACKSON        CLOUDY    71  60  68 CALM      30.01R
LONDON         CLOUDY    73  60  63 CALM      30.01S
SOMERSET       PTCLDY    72  57  60 CALM      30.01S
MIDDLESBORO    CLOUDY    73  63  70 S5        30.02S
MONTICELLO     CLOUDY    72  64  76 NE9       30.01S
$$





USA.gov is the U.S. government's official web portal to all federal, state and local government web resources and services.